Regional Weather Roundup
Issued by NWS

Home | Current Version | Previous Version | Text Only | Print | Product List | Glossary Off
Versions: 1 2 3 4 5 6 7 8 9 10 11 12 13 14 15 16 17 18 19 20 21 22 23 24 25 26 27 28 29 30 31 32 33 34 35 36 37 38 39 40 41 42 43 44 45 46 47 48 49 50

000
ASUS43 KFSD 240602
RWRSD

WEATHER ROUNDUP FOR SOUTH DAKOTA
NATIONAL WEATHER SERVICE SIOUX FALLS SD
1200 AM CST FRI FEB 24 2017

NOTE: "FAIR" INDICATES FEW OR NO CLOUDS BELOW 12,000 FEET WITH NO
SIGNIFICANT WEATHER AND/OR OBSTRUCTIONS TO VISIBILITY.


SDZ001>005-009-010-012>017-240700-
NORTHWEST AND NORTH CENTRAL SOUTH DAKOTA

CITY           SKY/WX    TMP DP  RH WIND       PRES   REMARKS
BUFFALO          N/A     23  21  92 NE18      29.97S WCI   9
FAITH            N/A     24  22  91 NE17      30.03S WCI  11
MOBRIDGE       CLOUDY    27  19  72 N13       30.04S WCI  16
$$

SDZ012>016-024>037-041>051-057-063-072>074-240700-
SOUTHWEST AND SOUTH CENTRAL SOUTH DAKOTA

CITY           SKY/WX    TMP DP  RH WIND       PRES   REMARKS
RAPID CTY ARPT CLOUDY    25  21  85 N8        29.99R WCI  16
PIERRE         CLOUDY    29  21  72 NE20      29.99S WCI  16
CUSTER         LGT SNOW  17  12  80 NE9       29.85S WCI   6
ELLSWORTH AFB  FLURRIES  25  23  93 N9        29.99  WCI  15
PHILIP         CLOUDY    28  22  78 N15       30.00F WCI  16
PINE RIDGE     LGT SNOW  24  21  88 NE10      29.95R VSB 1   WCI  14
SPEARFISH      LGT SNOW  23  19  86 E8        29.98S WCI  14
WINNER         LGT SNOW  26  23  88 N17       29.93S FOG     WCI  13
$$

SDZ004>011-016>023-039-040-240700-
NORTHEAST SOUTH DAKOTA

CITY           SKY/WX    TMP DP  RH WIND       PRES   REMARKS
ABERDEEN       CLOUDY    22  14  71 N16G28    30.05R WCI   8
WATERTOWN      CLOUDY    21  17  84 NE23G31   29.92F WCI   5
BROOKINGS      CLOUDY    25  21  85 NE21G28   29.86S WCI  11
SISSETON         N/A     23  16  74 N25G32    30.03S WCI   7
$$

SDZ017-020-022-023-036>040-048>070-240700-
SOUTHEAST SOUTH DAKOTA

CITY           SKY/WX    TMP DP  RH WIND       PRES   REMARKS
SIOUX FALLS    LGT SNOW  28  26  92 N21G32    29.82F FOG     WCI  15
HURON          CLOUDY    25  20  81 N17G29    29.95R WCI  12
CHAMBERLAIN    CLOUDY    28  24  85 N21       29.95F WCI  15
MITCHELL       CLOUDY    28  23  81 N18       29.92R WCI  15
YANKTON        CLOUDY    28  25  86 N20G29    29.78F VSB 1   WCI  15
$$

ABBREVIATIONS USED IN REMARKS
   TC - TEMPERATURE IN CELSIUS
  WCI - WIND CHILL INDEX
   HX - HEAT INDEX
  VSB - VISIBILITY





USA.gov is the U.S. government's official web portal to all federal, state and local government web resources and services.